| time (UTC) | temp F | wind direction | speed MPH | gust MPH | rain 1hr in | rain 24hr in | rain mn in | humidity % | barometer mb |
| 20260504202022 | 74 | 230 | 1.0 | 11.0 | 0.00 | 0.00 | 0.00 | 36 | 1009.9 |
| 20260504201821 | 75 | 150 | 2.0 | 10.0 | 0.00 | 0.00 | 0.00 | 37 | 1009.5 |
| 20260504201540 | 74 | 0 | 1.0 | 8.0 | 0.00 | 0.00 | 0.00 | 37 | 1009.9 |
| 20260504201333 | 75 | 155 | 2.0 | 6.0 | 0.00 | 0.00 | 0.00 | 38 | 1009.6 |
| 20260504201023 | 75 | 0 | 0.0 | 8.0 | 0.00 | 0.00 | 0.00 | 36 | 1010.2 |
| 20260504200818 | 75 | 177 | 0.0 | 7.0 | 0.00 | 0.00 | 0.00 | 37 | 1009.8 |
| 20260504200526 | 74 | 0 | 0.0 | 8.0 | 0.00 | 0.00 | 0.00 | 37 | 1010.2 |
| 20260504200327 | 75 | 235 | 0.0 | 4.0 | 0.00 | 0.00 | 0.00 | 38 | 1009.8 |
| 20260504200038 | 74 | 259 | 0.0 | 6.0 | 0.00 | 0.00 | 0.00 | 36 | 1010.2 |
| 20260504195815 | 74 | 173 | 1.0 | 5.0 | 0.00 | 0.00 | 0.00 | 37 | 1009.7 |
| 20260504195522 | 74 | 0 | 0.0 | 8.0 | 0.00 | 0.00 | 0.00 | 36 | 1010.2 |
| 20260504195332 | 74 | 182 | 0.0 | 6.0 | 0.00 | 0.00 | 0.00 | 38 | 1009.8 |
| 20260504195022 | 74 | 0 | 1.0 | 8.0 | 0.00 | 0.00 | 0.00 | 36 | 1010.2 |
| 20260504194826 | 74 | 177 | 1.0 | 7.0 | 0.00 | 0.00 | 0.00 | 40 | 1009.9 |
| 20260504194543 | 73 | 190 | 1.0 | 8.0 | 0.00 | 0.00 | 0.00 | 37 | 1010.3 |
| 20260504194319 | 74 | 265 | 0.0 | 4.0 | 0.00 | 0.00 | 0.00 | 38 | 1009.9 |
| 20260504194026 | 73 | 286 | 0.0 | 7.0 | 0.00 | 0.00 | 0.00 | 36 | 1010.4 |
| 20260504193832 | 74 | 173 | 1.0 | 6.0 | 0.00 | 0.00 | 0.00 | 36 | 1010.0 |
| 20260504193527 | 73 | 213 | 0.0 | 7.0 | 0.00 | 0.00 | 0.00 | 37 | 1010.5 |
| 20260504193346 | 74 | 173 | 2.0 | 6.0 | 0.00 | 0.00 | 0.00 | 38 | 1010.1 |
| 20260504193037 | 73 | 220 | 0.0 | 10.0 | 0.00 | 0.00 | 0.00 | 36 | 1010.6 |
| 20260504192821 | 73 | 197 | 1.0 | 9.0 | 0.00 | 0.00 | 0.00 | 36 | 1010.2 |
| 20260504192525 | 73 | 0 | 0.0 | 12.0 | 0.00 | 0.00 | 0.00 | 36 | 1010.7 |
| 20260504192315 | 73 | 192 | 1.0 | 11.0 | 0.00 | 0.00 | 0.00 | 36 | 1010.3 |
| 20260504192028 | 73 | 0 | 0.0 | 12.0 | 0.00 | 0.00 | 0.00 | 36 | 1010.8 |
| 20260504191849 | 74 | 173 | 0.0 | 11.0 | 0.00 | 0.00 | 0.00 | 37 | 1010.4 |
| 20260504191543 | 73 | 162 | 2.0 | 7.0 | 0.00 | 0.00 | 0.00 | 39 | 1011.1 |
| 20260504191320 | 73 | 183 | 0.0 | 6.0 | 0.00 | 0.00 | 0.00 | 38 | 1010.6 |
| 20260504191025 | 73 | 0 | 0.0 | 6.0 | 0.00 | 0.00 | 0.00 | 36 | 1011.0 |
| 20260504190834 | 73 | 21 | 1.0 | 6.0 | 0.00 | 0.00 | 0.00 | 37 | 1010.6 |
| 20260504190525 | 73 | 234 | 0.0 | 8.0 | 0.00 | 0.00 | 0.00 | 37 | 1011.1 |
| 20260504190327 | 73 | 140 | 1.0 | 8.0 | 0.00 | 0.00 | 0.00 | 37 | 1010.7 |
| 20260504190038 | 73 | 45 | 1.0 | 12.0 | 0.00 | 0.00 | 0.00 | 37 | 1011.3 |
| 20260504185840 | 73 | 198 | 3.0 | 12.0 | 0.00 | 0.00 | 0.00 | 37 | 1010.8 |
| 20260504185522 | 73 | 252 | 1.0 | 12.0 | 0.00 | 0.00 | 0.00 | 36 | 1011.4 |
| 20260504185316 | 73 | 240 | 3.0 | 12.0 | 0.00 | 0.00 | 0.00 | 38 | 1010.9 |
| 20260504185025 | 73 | 0 | 0.0 | 7.0 | 0.00 | 0.00 | 0.00 | 39 | 1011.4 |
| 20260504184815 | 73 | 173 | 1.0 | 6.0 | 0.00 | 0.00 | 0.00 | 39 | 1011.0 |
| 20260504184537 | 72 | 0 | 0.0 | 12.0 | 0.00 | 0.00 | 0.00 | 38 | 1011.5 |
| 20260504184331 | 73 | 175 | 1.0 | 7.0 | 0.00 | 0.00 | 0.00 | 39 | 1011.1 |
| 20260504184030 | 72 | 0 | 0.0 | 12.0 | 0.00 | 0.00 | 0.00 | 41 | 1011.5 |
| 20260504183824 | 73 | 190 | 1.0 | 11.0 | 0.00 | 0.00 | 0.00 | 39 | 1011.2 |
| 20260504183526 | 72 | 0 | 2.0 | 12.0 | 0.00 | 0.00 | 0.00 | 41 | 1011.6 |
| 20260504183337 | 73 | 208 | 1.0 | 8.0 | 0.00 | 0.00 | 0.00 | 39 | 1011.2 |
| 20260504183036 | 72 | 211 | 0.0 | 9.0 | 0.00 | 0.00 | 0.00 | 38 | 1011.6 |
| 20260504182828 | 72 | 15 | 1.0 | 8.0 | 0.00 | 0.00 | 0.00 | 41 | 1011.3 |
| 20260504182526 | 72 | 0 | 0.0 | 9.0 | 0.00 | 0.00 | 0.00 | 38 | 1011.7 |
| 20260504182322 | 72 | 212 | 1.0 | 8.0 | 0.00 | 0.00 | 0.00 | 38 | 1011.4 |
| 20260504182025 | 72 | 291 | 1.0 | 8.0 | 0.00 | 0.00 | 0.00 | 40 | 1011.9 |
| 20260504181814 | 72 | 165 | 1.0 | 7.0 | 0.00 | 0.00 | 0.00 | 42 | 1011.6 |
| 20260504181538 | 72 | 0 | 1.0 | 8.0 | 0.00 | 0.00 | 0.00 | 37 | 1011.8 |
| 20260504181330 | 72 | 320 | 1.0 | 6.0 | 0.00 | 0.00 | 0.00 | 38 | 1011.6 |
| 20260504181027 | 72 | 0 | 0.0 | 9.0 | 0.00 | 0.00 | 0.00 | 37 | 1012.0 |
| 20260504180843 | 72 | 196 | 1.0 | 8.0 | 0.00 | 0.00 | 0.00 | 38 | 1011.7 |
| 20260504180526 | 72 | 0 | 0.0 | 9.0 | 0.00 | 0.00 | 0.00 | 39 | 1012.0 |
| 20260504180316 | 72 | 192 | 1.0 | 8.0 | 0.00 | 0.00 | 0.00 | 39 | 1011.8 |
| 20260504180048 | 72 | 164 | 0.0 | 9.0 | 0.00 | 0.00 | 0.00 | 41 | 1012.1 |
| 20260504175850 | 72 | 165 | 1.0 | 7.0 | 0.00 | 0.00 | 0.00 | 40 | 1011.8 |
| 20260504175528 | 71 | 208 | 1.0 | 9.0 | 0.00 | 0.00 | 0.00 | 46 | 1012.1 |
| 20260504175323 | 72 | 256 | 0.0 | 9.0 | 0.00 | 0.00 | 0.00 | 38 | 1011.9 |
| 20260504175025 | 71 | 0 | 3.0 | 9.0 | 0.00 | 0.00 | 0.00 | 39 | 1012.2 |
| 20260504174835 | 72 | 177 | 5.0 | 9.0 | 0.00 | 0.00 | 0.00 | 41 | 1011.9 |
| 20260504174543 | 71 | 220 | 1.0 | 9.0 | 0.00 | 0.00 | 0.00 | 38 | 1012.2 |
| 20260504174330 | 72 | 171 | 2.0 | 7.0 | 0.00 | 0.00 | 0.00 | 39 | 1012.0 |
| 20260504174025 | 71 | 0 | 1.0 | 8.0 | 0.00 | 0.00 | 0.00 | 38 | 1012.2 |
| 20260504173846 | 71 | 196 | 2.0 | 7.0 | 0.00 | 0.00 | 0.00 | 45 | 1012.1 |
| 20260504173525 | 71 | 199 | 1.0 | 11.0 | 0.00 | 0.00 | 0.00 | 40 | 1012.3 |
| 20260504173317 | 71 | 25 | 1.0 | 11.0 | 0.00 | 0.00 | 0.00 | 40 | 1012.1 |
| 20260504173037 | 71 | 256 | 1.0 | 12.0 | 0.00 | 0.00 | 0.00 | 39 | 1012.4 |
| 20260504172829 | 72 | 148 | 3.0 | 11.0 | 0.00 | 0.00 | 0.00 | 41 | 1012.2 |
| 20260504172524 | 71 | 181 | 1.0 | 12.0 | 0.00 | 0.00 | 0.00 | 42 | 1012.4 |
| 20260504172322 | 71 | 163 | 0.0 | 5.0 | 0.00 | 0.00 | 0.00 | 40 | 1012.2 |
| 20260504172025 | 71 | 0 | 0.0 | 9.0 | 0.00 | 0.00 | 0.00 | 37 | 1012.4 |
| 20260504171813 | 72 | 296 | 0.0 | 8.0 | 0.00 | 0.00 | 0.00 | 37 | 1012.2 |
| 20260504171539 | 71 | 0 | 1.0 | 9.0 | 0.00 | 0.00 | 0.00 | 37 | 1012.5 |
| 20260504171329 | 72 | 187 | 2.0 | 8.0 | 0.00 | 0.00 | 0.00 | 41 | 1012.3 |
| 20260504171026 | 72 | 304 | 1.0 | 9.0 | 0.00 | 0.00 | 0.00 | 37 | 1012.7 |
| 20260504170821 | 72 | 207 | 1.0 | 5.0 | 0.00 | 0.00 | 0.00 | 39 | 1012.4 |
| 20260504170525 | 71 | 242 | 0.0 | 10.0 | 0.00 | 0.00 | 0.00 | 37 | 1012.8 |
| 20260504170335 | 72 | 100 | 1.0 | 9.0 | 0.00 | 0.00 | 0.00 | 38 | 1012.6 |
| 20260504160323 | 70 | 171 | 1.0 | 6.0 | 0.00 | 0.00 | 0.00 | 36 | 1013.2 |
| 20260504151025 | 67 | 0 | 0.0 | 7.0 | 0.00 | 0.00 | 0.00 | 40 | 1014.2 |
| 20260504150824 | 67 | 192 | 0.0 | 6.0 | 0.00 | 0.00 | 0.00 | 38 | 1013.9 |
| 20260504150525 | 66 | 0 | 1.0 | 7.0 | 0.00 | 0.00 | 0.00 | 40 | 1014.2 |
| 20260504150317 | 67 | 349 | 1.0 | 3.0 | 0.00 | 0.00 | 0.00 | 42 | 1013.8 |
| 20260504141028 | 61 | 0 | 0.0 | 5.0 | 0.00 | 0.00 | 0.00 | 46 | 1014.4 |
| 20260504140817 | 61 | 216 | 0.0 | 5.0 | 0.00 | 0.00 | 0.00 | 48 | 1014.0 |
| 20260504140525 | 61 | 197 | 0.0 | 5.0 | 0.00 | 0.00 | 0.00 | 50 | 1014.3 |
| 20260504140313 | 61 | 165 | 0.0 | 5.0 | 0.00 | 0.00 | 0.00 | 49 | 1014.0 |
| 20260504130525 | 55 | 0 | 0.0 | 3.0 | 0.00 | 0.00 | 0.00 | 59 | 1014.8 |
| 20260504130340 | 55 | 169 | 0.0 | 4.0 | 0.00 | 0.00 | 0.00 | 62 | 1014.6 |
| 20260504120317 | 50 | 177 | 0.0 | 0.0 | 0.00 | 0.00 | 0.00 | 69 | 1014.8 |
| 20260504110525 | 44 | 0 | 0.0 | 0.0 | 0.00 | 0.00 | 0.00 | 82 | 1015.2 |
| 20260504110332 | 45 | 0.0 | 0.0 | 0.00 | 0.00 | 0.00 | 83 | 1015.0 | |
| 20260504100522 | 45 | 0.0 | 0.0 | 0.00 | 0.00 | 0.00 | 80 | 1015.2 | |
| 20260504100318 | 46 | 0.0 | 0.0 | 0.00 | 0.00 | 0.00 | 81 | 1014.9 | |
| 20260504081829 | 44 | 0.0 | 0.0 | 0.00 | 0.00 | 0.00 | 86 | 1015.2 | |
| 20260504081545 | 43 | 0.0 | 0.0 | 0.00 | 0.00 | 0.00 | 86 | 1015.7 | |
| 20260504081346 | 44 | 0.0 | 0.0 | 0.00 | 0.00 | 0.00 | 86 | 1015.2 | |
| 20260504081029 | 43 | 0.0 | 0.0 | 0.00 | 0.00 | 0.00 | 86 | 1015.6 | |
| 20260504080820 | 44 | 0.0 | 0.0 | 0.00 | 0.00 | 0.00 | 86 | 1015.1 | |
| 20260504080525 | 43 | 0.0 | 0.0 | 0.00 | 0.00 | 0.00 | 86 | 1015.5 | |
| 20260504080317 | 43 | 0.0 | 0.0 | 0.00 | 0.00 | 0.00 | 86 | 1015.0 | |
| 20260504080104 | 43 | 0.0 | 0.0 | 0.00 | 0.00 | 0.00 | 86 | 1015.5 | |
| 20260504070315 | 42 | 0.0 | 0.0 | 0.00 | 0.00 | 0.00 | 88 | 1015.3 | |
| 20260504050526 | 40 | 0.0 | 0.0 | 0.00 | 0.00 | 0.00 | 87 | 1016.1 | |
| 20260504050328 | 40 | 0.0 | 0.0 | 0.00 | 0.00 | 0.00 | 87 | 1015.7 | |
| 20260504045825 | 40 | 0.0 | 0.0 | 0.00 | 0.00 | 0.00 | 86 | 1015.8 | |
| 20260504045525 | 40 | 0.0 | 0.0 | 0.00 | 0.00 | 0.00 | 86 | 1016.1 | |
| 20260504045321 | 40 | 0.0 | 0.0 | 0.00 | 0.00 | 0.00 | 86 | 1015.7 | |
| 20260504045025 | 40 | 0.0 | 0.0 | 0.00 | 0.00 | 0.00 | 86 | 1016.2 | |
| 20260504044817 | 40 | 0.0 | 0.0 | 0.00 | 0.00 | 0.00 | 86 | 1015.7 | |
| 20260504044539 | 40 | 0.0 | 0.0 | 0.00 | 0.00 | 0.00 | 85 | 1016.1 | |
| 20260504044334 | 40 | 0.0 | 0.0 | 0.00 | 0.00 | 0.00 | 86 | 1015.7 | |
| 20260504044025 | 40 | 0.0 | 0.0 | 0.00 | 0.00 | 0.00 | 85 | 1016.1 | |
| 20260504043829 | 40 | 0.0 | 0.0 | 0.00 | 0.00 | 0.00 | 86 | 1015.7 | |
| 20260504043525 | 40 | 0.0 | 0.0 | 0.00 | 0.00 | 0.00 | 85 | 1016.1 | |
| 20260504043325 | 40 | 0.0 | 0.0 | 0.00 | 0.00 | 0.00 | 86 | 1015.6 | |
| 20260504043037 | 40 | 0.0 | 0.0 | 0.00 | 0.00 | 0.00 | 85 | 1015.9 | |
| 20260504042822 | 41 | 0.0 | 0.0 | 0.00 | 0.00 | 0.00 | 85 | 1015.6 | |
| 20260504042526 | 40 | 0.0 | 0.0 | 0.00 | 0.00 | 0.00 | 84 | 1016.0 | |
| 20260504042317 | 41 | 0.0 | 0.0 | 0.00 | 0.00 | 0.00 | 85 | 1015.6 | |
| 20260504042025 | 40 | 0.0 | 0.0 | 0.00 | 0.00 | 0.00 | 84 | 1016.0 | |
| 20260504041818 | 41 | 0.0 | 0.0 | 0.00 | 0.00 | 0.00 | 85 | 1015.6 | |
| 20260504041540 | 40 | 0.0 | 0.0 | 0.00 | 0.00 | 0.00 | 84 | 1016.0 | |
| 20260504041335 | 41 | 0.0 | 0.0 | 0.00 | 0.00 | 0.00 | 85 | 1015.6 | |
| 20260504041022 | 40 | 0.0 | 0.0 | 0.00 | 0.00 | 0.00 | 84 | 1015.9 | |
| 20260504040849 | 41 | 0.0 | 0.0 | 0.00 | 0.00 | 0.00 | 84 | 1015.5 | |
| 20260504040522 | 41 | 0.0 | 0.0 | 0.00 | 0.00 | 0.00 | 84 | 1016.0 | |
| 20260504040321 | 41 | 0.0 | 0.0 | 0.00 | 0.00 | 0.00 | 84 | 1015.6 | |
| 20260504040100 | 41 | 0.0 | 0.0 | 0.00 | 0.00 | 0.00 | 83 | 1016.0 | |
| 20260504035835 | 41 | 0.0 | 0.0 | 0.00 | 0.00 | 0.00 | 84 | 1015.6 | |
| 20260504035525 | 41 | 0.0 | 0.0 | 0.00 | 0.00 | 0.00 | 83 | 1016.0 | |
| 20260504035330 | 41 | 0.0 | 0.0 | 0.00 | 0.00 | 0.00 | 83 | 1015.7 | |
| 20260504035023 | 41 | 0.0 | 0.0 | 0.00 | 0.00 | 0.00 | 82 | 1016.1 | |
| 20260504034824 | 42 | 0.0 | 0.0 | 0.00 | 0.00 | 0.00 | 83 | 1015.8 | |
| 20260504034538 | 41 | 0.0 | 0.0 | 0.00 | 0.00 | 0.00 | 82 | 1016.1 | |
| 20260504034022 | 41 | 0.0 | 0.0 | 0.00 | 0.00 | 0.00 | 82 | 1016.0 | |
| 20260504033844 | 42 | 0.0 | 0.0 | 0.00 | 0.00 | 0.00 | 82 | 1015.6 | |
| 20260504033526 | 41 | 0.0 | 0.0 | 0.00 | 0.00 | 0.00 | 81 | 1015.9 | |
| 20260504033319 | 42 | 0.0 | 0.0 | 0.00 | 0.00 | 0.00 | 81 | 1015.5 | |
| 20260504033038 | 42 | 0.0 | 0.0 | 0.00 | 0.00 | 0.00 | 81 | 1015.9 | |
| 20260504032816 | 42 | 0.0 | 0.0 | 0.00 | 0.00 | 0.00 | 81 | 1015.4 | |
| 20260504032524 | 42 | 0.0 | 0.0 | 0.00 | 0.00 | 0.00 | 80 | 1015.8 | |
| 20260504032334 | 42 | 0.0 | 0.0 | 0.00 | 0.00 | 0.00 | 80 | 1015.4 | |
| 20260504032029 | 42 | 0.0 | 0.0 | 0.00 | 0.00 | 0.00 | 80 | 1015.7 | |
| 20260504031830 | 42 | 0.0 | 0.0 | 0.00 | 0.00 | 0.00 | 80 | 1015.4 | |
| 20260504031537 | 42 | 0.0 | 0.0 | 0.00 | 0.00 | 0.00 | 80 | 1015.8 | |
| 20260504031346 | 43 | 0.0 | 0.0 | 0.00 | 0.00 | 0.00 | 80 | 1015.4 | |
| 20260504031022 | 42 | 0.0 | 0.0 | 0.00 | 0.00 | 0.00 | 79 | 1015.7 | |
| 20260504030841 | 43 | 0.0 | 0.0 | 0.00 | 0.00 | 0.00 | 79 | 1015.3 | |
| 20260504030525 | 42 | 0.0 | 0.0 | 0.00 | 0.00 | 0.00 | 78 | 1015.7 | |
| 20260504030318 | 43 | 0.0 | 0.0 | 0.00 | 0.00 | 0.00 | 78 | 1015.3 | |
| 20260504030044 | 43 | 0.0 | 0.0 | 0.00 | 0.00 | 0.00 | 78 | 1015.6 | |
| 20260504025850 | 43 | 0.0 | 0.0 | 0.00 | 0.00 | 0.00 | 78 | 1015.3 | |
| 20260504025526 | 43 | 0.0 | 0.0 | 0.00 | 0.00 | 0.00 | 78 | 1015.6 | |
| 20260504025323 | 43 | 0.0 | 0.0 | 0.00 | 0.00 | 0.00 | 77 | 1015.3 | |
| 20260504025025 | 43 | 0.0 | 0.0 | 0.00 | 0.00 | 0.00 | 76 | 1015.6 | |
| 20260504024820 | 44 | 0.0 | 0.0 | 0.00 | 0.00 | 0.00 | 77 | 1015.1 | |
| 20260504024539 | 43 | 0.0 | 0.0 | 0.00 | 0.00 | 0.00 | 76 | 1015.5 | |
| 20260504024338 | 44 | 0.0 | 0.0 | 0.00 | 0.00 | 0.00 | 76 | 1015.1 | |
| 20260504024030 | 43 | 0.0 | 0.0 | 0.00 | 0.00 | 0.00 | 75 | 1015.5 | |
| 20260504023813 | 44 | 0.0 | 0.0 | 0.00 | 0.00 | 0.00 | 75 | 1015.1 | |
| 20260504023526 | 44 | 0.0 | 0.0 | 0.00 | 0.00 | 0.00 | 75 | 1015.4 | |
| 20260504023331 | 44 | 0.0 | 0.0 | 0.00 | 0.00 | 0.00 | 75 | 1015.1 | |
| 20260504023037 | 44 | 0.0 | 0.0 | 0.00 | 0.00 | 0.00 | 74 | 1015.5 | |
| 20260504022824 | 44 | 0.0 | 0.0 | 0.00 | 0.00 | 0.00 | 75 | 1015.1 | |
| 20260504022525 | 44 | 0.0 | 0.0 | 0.00 | 0.00 | 0.00 | 74 | 1015.4 | |
| 20260504022318 | 45 | 0.0 | 0.0 | 0.00 | 0.00 | 0.00 | 74 | 1015.0 | |
| 20260504022025 | 44 | 0.0 | 0.0 | 0.00 | 0.00 | 0.00 | 73 | 1015.4 | |
| 20260504021830 | 45 | 0.0 | 0.0 | 0.00 | 0.00 | 0.00 | 73 | 1015.0 | |
| 20260504021537 | 45 | 0.0 | 0.0 | 0.00 | 0.00 | 0.00 | 72 | 1015.3 | |
| 20260504021326 | 45 | 0.0 | 0.0 | 0.00 | 0.00 | 0.00 | 72 | 1015.0 | |
| 20260504021025 | 45 | 0.0 | 0.0 | 0.00 | 0.00 | 0.00 | 72 | 1015.3 | |
| 20260504020822 | 45 | 0.0 | 0.0 | 0.00 | 0.00 | 0.00 | 72 | 1014.9 | |
| 20260504020525 | 45 | 0.0 | 0.0 | 0.00 | 0.00 | 0.00 | 72 | 1015.3 | |
| 20260504020319 | 46 | 0.0 | 0.0 | 0.00 | 0.00 | 0.00 | 72 | 1015.0 | |
| 20260504020037 | 45 | 0.0 | 0.0 | 0.00 | 0.00 | 0.00 | 70 | 1015.4 | |
| 20260504015835 | 46 | 0.0 | 0.0 | 0.00 | 0.00 | 0.00 | 70 | 1015.0 | |
| 20260504015525 | 46 | 0.0 | 0.0 | 0.00 | 0.00 | 0.00 | 69 | 1015.4 | |
| 20260504015348 | 46 | 0.0 | 0.0 | 0.00 | 0.00 | 0.00 | 69 | 1014.9 | |
| 20260504015026 | 46 | 0.0 | 0.0 | 0.00 | 0.00 | 0.00 | 69 | 1015.2 | |
| 20260504014822 | 46 | 0.0 | 0.0 | 0.00 | 0.00 | 0.00 | 69 | 1014.9 | |
| 20260504014542 | 46 | 0.0 | 0.0 | 0.00 | 0.00 | 0.00 | 67 | 1015.2 | |
| 20260504014333 | 47 | 0.0 | 0.0 | 0.00 | 0.00 | 0.00 | 68 | 1014.8 | |
| 20260504014025 | 46 | 0.0 | 0.0 | 0.00 | 0.00 | 0.00 | 67 | 1015.2 | |
| 20260504013825 | 47 | 0.0 | 0.0 | 0.00 | 0.00 | 0.00 | 67 | 1014.8 | |
| 20260504013525 | 47 | 0.0 | 0.0 | 0.00 | 0.00 | 0.00 | 66 | 1015.1 | |
| 20260504013322 | 47 | 0.0 | 0.0 | 0.00 | 0.00 | 0.00 | 66 | 1014.8 | |
| 20260504013042 | 47 | 0.0 | 0.0 | 0.00 | 0.00 | 0.00 | 65 | 1015.2 | |
| 20260504012816 | 48 | 0.0 | 0.0 | 0.00 | 0.00 | 0.00 | 66 | 1014.8 | |
| 20260504012527 | 47 | 0.0 | 0.0 | 0.00 | 0.00 | 0.00 | 65 | 1015.1 | |
| 20260504012312 | 48 | 0.0 | 0.0 | 0.00 | 0.00 | 0.00 | 65 | 1014.7 | |
| 20260504012025 | 48 | 0.0 | 0.0 | 0.00 | 0.00 | 0.00 | 64 | 1015.0 | |
| 20260504011829 | 49 | 0.0 | 0.0 | 0.00 | 0.00 | 0.00 | 64 | 1014.6 | |
| 20260504011540 | 48 | 0.0 | 0.0 | 0.00 | 0.00 | 0.00 | 63 | 1015.0 | |
| 20260504011325 | 49 | 0.0 | 0.0 | 0.00 | 0.00 | 0.00 | 63 | 1014.6 | |
| 20260504011024 | 49 | 0.0 | 0.0 | 0.00 | 0.00 | 0.00 | 63 | 1015.0 | |
| 20260504010822 | 49 | 0.0 | 0.0 | 0.00 | 0.00 | 0.00 | 62 | 1014.7 | |
| 20260504010524 | 49 | 0.0 | 0.0 | 0.00 | 0.00 | 0.00 | 61 | 1015.0 | |
| 20260504010319 | 50 | 0.0 | 0.0 | 0.00 | 0.00 | 0.00 | 61 | 1014.7 | |
| 20260504010037 | 49 | 0.0 | 0.0 | 0.00 | 0.00 | 0.00 | 60 | 1015.0 | |
| 20260504005815 | 50 | 0.0 | 0.0 | 0.00 | 0.00 | 0.00 | 60 | 1014.7 | |
| 20260504005526 | 50 | 0.0 | 0.0 | 0.00 | 0.00 | 0.00 | 59 | 1015.0 | |
| 20260504005331 | 51 | 0.0 | 0.0 | 0.00 | 0.00 | 0.00 | 59 | 1014.6 | |
| 20260504005026 | 50 | 0.0 | 0.0 | 0.00 | 0.00 | 0.00 | 57 | 1014.9 | |
| 20260504004849 | 51 | 0.0 | 0.0 | 0.00 | 0.00 | 0.00 | 57 | 1014.5 | |
| 20260504004544 | 51 | 0.0 | 0.0 | 0.00 | 0.00 | 0.00 | 57 | 1014.9 | |
| 20260504004324 | 52 | 0.0 | 0.0 | 0.00 | 0.00 | 0.00 | 57 | 1014.5 | |
| 20260504004025 | 51 | 0.0 | 0.0 | 0.00 | 0.00 | 0.00 | 55 | 1014.8 | |
| 20260504003820 | 52 | 0.0 | 0.0 | 0.00 | 0.00 | 0.00 | 56 | 1014.5 | |
| 20260504003529 | 52 | 0.0 | 0.0 | 0.00 | 0.00 | 0.00 | 54 | 1014.7 | |
| 20260504003315 | 53 | 0.0 | 0.0 | 0.00 | 0.00 | 0.00 | 53 | 1014.4 | |
| 20260504003036 | 52 | 0.0 | 0.0 | 0.00 | 0.00 | 0.00 | 52 | 1014.6 | |
| 20260504002850 | 53 | 0.0 | 0.0 | 0.00 | 0.00 | 0.00 | 53 | 1014.4 | |
| 20260504002525 | 53 | 0.0 | 0.0 | 0.00 | 0.00 | 0.00 | 51 | 1014.7 | |
| 20260504002324 | 53 | 0.0 | 0.0 | 0.00 | 0.00 | 0.00 | 51 | 1014.3 | |
| 20260504002025 | 53 | 0.0 | 0.0 | 0.00 | 0.00 | 0.00 | 50 | 1014.6 | |
| 20260504001821 | 54 | 0.0 | 0.0 | 0.00 | 0.00 | 0.00 | 50 | 1014.3 | |
| 20260504001539 | 54 | 0.0 | 0.0 | 0.00 | 0.00 | 0.00 | 49 | 1014.5 | |
| 20260504001335 | 54 | 0.0 | 0.0 | 0.00 | 0.00 | 0.00 | 50 | 1014.2 | |
| 20260504001025 | 54 | 0.0 | 0.0 | 0.00 | 0.00 | 0.00 | 50 | 1014.5 | |
| 20260504000849 | 55 | 0.0 | 0.0 | 0.00 | 0.00 | 0.00 | 48 | 1014.2 | |
| 20260504000525 | 54 | 0.0 | 0.0 | 0.00 | 0.00 | 0.00 | 48 | 1014.4 | |
| 20260504000321 | 55 | 0.0 | 0.0 | 0.00 | 0.00 | 0.00 | 48 | 1014.1 | |
| 20260504000042 | 55 | 0.0 | 0.0 | 0.00 | 0.00 | 0.00 | 48 | 1014.4 | |
| 20260503235819 | 55 | 0.0 | 0.0 | 0.00 | 0.00 | 0.00 | 47 | 1014.1 | |
| 20260503235525 | 55 | 0.0 | 0.0 | 0.00 | 0.00 | 0.00 | 45 | 1014.3 | |
| 20260503235316 | 56 | 0.0 | 0.0 | 0.00 | 0.00 | 0.00 | 45 | 1014.0 | |
| 20260503235027 | 56 | 0.0 | 0.0 | 0.00 | 0.00 | 0.00 | 43 | 1014.3 | |
| 20260503234830 | 56 | 0.0 | 0.0 | 0.00 | 0.00 | 0.00 | 44 | 1014.0 | |
| 20260503234540 | 56 | 0.0 | 0.0 | 0.00 | 0.00 | 0.00 | 44 | 1014.3 | |
| 20260503234323 | 57 | 265 | 0.0 | 0.0 | 0.00 | 0.00 | 0.00 | 43 | 1014.1 |
| 20260503234025 | 56 | 0.0 | 0.0 | 0.00 | 0.00 | 0.00 | 43 | 1014.3 | |
| 20260503233819 | 57 | 265 | 0.0 | 0.0 | 0.00 | 0.00 | 0.00 | 44 | 1014.0 |
| 20260503233525 | 56 | 0 | 0.0 | 0.0 | 0.00 | 0.00 | 0.00 | 42 | 1014.2 |
| 20260503233314 | 57 | 265 | 0.0 | 0.0 | 0.00 | 0.00 | 0.00 | 42 | 1013.9 |
| 20260503233045 | 57 | 0 | 0.0 | 0.0 | 0.00 | 0.00 | 0.00 | 41 | 1014.2 |
| 20260503232831 | 57 | 265 | 0.0 | 0.0 | 0.00 | 0.00 | 0.00 | 41 | 1013.9 |
| 20260503232526 | 57 | 0 | 0.0 | 0.0 | 0.00 | 0.00 | 0.00 | 40 | 1014.1 |
| 20260503232328 | 58 | 265 | 0.0 | 0.0 | 0.00 | 0.00 | 0.00 | 40 | 1013.9 |
| 20260503232026 | 57 | 0 | 0.0 | 0.0 | 0.00 | 0.00 | 0.00 | 40 | 1014.0 |
| 20260503231821 | 58 | 265 | 0.0 | 0.0 | 0.00 | 0.00 | 0.00 | 41 | 1013.8 |
| 20260503231538 | 58 | 0 | 0.0 | 0.0 | 0.00 | 0.00 | 0.00 | 41 | 1014.0 |
| 20260503231317 | 58 | 265 | 0.0 | 0.0 | 0.00 | 0.00 | 0.00 | 40 | 1013.7 |
| 20260503231026 | 58 | 0 | 0.0 | 0.0 | 0.00 | 0.00 | 0.00 | 38 | 1013.9 |
| 20260503230830 | 58 | 265 | 0.0 | 0.0 | 0.00 | 0.00 | 0.00 | 39 | 1013.7 |
| 20260503230526 | 58 | 0 | 0.0 | 0.0 | 0.00 | 0.00 | 0.00 | 39 | 1013.9 |
| 20260503230324 | 59 | 265 | 0.0 | 0.0 | 0.00 | 0.00 | 0.00 | 40 | 1013.7 |
| 20260503230037 | 58 | 0 | 0.0 | 0.0 | 0.00 | 0.00 | 0.00 | 38 | 1013.9 |
| 20260503225821 | 59 | 211 | 0.0 | 0.0 | 0.00 | 0.00 | 0.00 | 39 | 1013.7 |
| 20260503225525 | 58 | 0 | 0.0 | 0.0 | 0.00 | 0.00 | 0.00 | 39 | 1013.9 |
| 20260503225334 | 59 | 210 | 0.0 | 0.0 | 0.00 | 0.00 | 0.00 | 38 | 1013.8 |
| 20260503225025 | 59 | 0 | 0.0 | 0.0 | 0.00 | 0.00 | 0.00 | 37 | 1014.0 |
| 20260503224827 | 59 | 210 | 0.0 | 0.0 | 0.00 | 0.00 | 0.00 | 38 | 1013.8 |
| 20260503224537 | 59 | 0 | 0.0 | 0.0 | 0.00 | 0.00 | 0.00 | 39 | 1014.0 |
| 20260503224319 | 59 | 115 | 0.0 | 0.0 | 0.00 | 0.00 | 0.00 | 41 | 1013.7 |
| 20260503224025 | 59 | 0 | 0.0 | 1.0 | 0.00 | 0.00 | 0.00 | 38 | 1014.0 |
| 20260503223815 | 60 | 115 | 0.0 | 1.0 | 0.00 | 0.00 | 0.00 | 36 | 1013.7 |
| 20260503223528 | 59 | 0 | 0.0 | 4.0 | 0.00 | 0.00 | 0.00 | 38 | 1014.0 |
| 20260503223331 | 60 | 179 | 0.0 | 4.0 | 0.00 | 0.00 | 0.00 | 36 | 1013.8 |
| 20260503223042 | 59 | 0 | 0.0 | 4.0 | 0.00 | 0.00 | 0.00 | 35 | 1014.1 |
| 20260503222824 | 60 | 11 | 0.0 | 4.0 | 0.00 | 0.00 | 0.00 | 35 | 1013.9 |
| 20260503222525 | 59 | 0 | 0.0 | 7.0 | 0.00 | 0.00 | 0.00 | 35 | 1014.0 |
| 20260503222320 | 60 | 266 | 0.0 | 6.0 | 0.00 | 0.00 | 0.00 | 38 | 1013.8 |
| 20260503222026 | 59 | 0 | 0.0 | 7.0 | 0.00 | 0.00 | 0.00 | 34 | 1014.0 |
| 20260503221833 | 60 | 305 | 1.0 | 6.0 | 0.00 | 0.00 | 0.00 | 35 | 1013.9 |
| 20260503221546 | 59 | 196 | 1.0 | 5.0 | 0.00 | 0.00 | 0.00 | 33 | 1014.1 |
| 20260503221347 | 60 | 202 | 0.0 | 4.0 | 0.00 | 0.00 | 0.00 | 36 | 1013.9 |
| 20260503221026 | 59 | 0 | 0.0 | 4.0 | 0.00 | 0.00 | 0.00 | 35 | 1014.0 |
| 20260503220819 | 60 | 270 | 0.0 | 4.0 | 0.00 | 0.00 | 0.00 | 36 | 1013.9 |
| 20260503220528 | 59 | 0 | 0.0 | 4.0 | 0.00 | 0.00 | 0.00 | 37 | 1014.1 |
| 20260503220334 | 60 | 7 | 1.0 | 4.0 | 0.00 | 0.00 | 0.00 | 35 | 1013.9 |
| 20260503220039 | 60 | 0 | 0.0 | 5.0 | 0.00 | 0.00 | 0.00 | 34 | 1014.1 |
| 20260503215828 | 60 | 335 | 0.0 | 5.0 | 0.00 | 0.00 | 0.00 | 36 | 1013.9 |
| 20260503215526 | 60 | 0 | 0.0 | 5.0 | 0.00 | 0.00 | 0.00 | 34 | 1014.1 |
| 20260503215319 | 60 | 325 | 1.0 | 5.0 | 0.00 | 0.00 | 0.00 | 36 | 1013.9 |
| 20260503215025 | 60 | 0 | 0.0 | 4.0 | 0.00 | 0.00 | 0.00 | 36 | 1014.2 |
| 20260503214834 | 60 | 204 | 0.0 | 4.0 | 0.00 | 0.00 | 0.00 | 36 | 1014.0 |
| 20260503214538 | 60 | 345 | 0.0 | 8.0 | 0.00 | 0.00 | 0.00 | 36 | 1014.3 |
| 20260503214328 | 60 | 32 | 0.0 | 7.0 | 0.00 | 0.00 | 0.00 | 35 | 1014.0 |
| 20260503214025 | 60 | 0 | 1.0 | 8.0 | 0.00 | 0.00 | 0.00 | 33 | 1014.1 |
| 20260503213822 | 60 | 286 | 1.0 | 7.0 | 0.00 | 0.00 | 0.00 | 34 | 1013.9 |
| 20260503213525 | 60 | 234 | 0.0 | 3.0 | 0.00 | 0.00 | 0.00 | 34 | 1014.1 |
| 20260503213315 | 60 | 27 | 0.0 | 3.0 | 0.00 | 0.00 | 0.00 | 37 | 1014.0 |
| 20260503213045 | 60 | 0 | 0.0 | 9.0 | 0.00 | 0.00 | 0.00 | 34 | 1014.2 |
| 20260503212830 | 60 | 61 | 0.0 | 8.0 | 0.00 | 0.00 | 0.00 | 36 | 1014.0 |
| 20260503212526 | 60 | 0 | 0.0 | 9.0 | 0.00 | 0.00 | 0.00 | 37 | 1014.3 |
| 20260503212323 | 60 | 230 | 0.0 | 8.0 | 0.00 | 0.00 | 0.00 | 35 | 1014.1 |
| 20260503212026 | 60 | 291 | 0.0 | 9.0 | 0.00 | 0.00 | 0.00 | 35 | 1014.3 |
| 20260503211819 | 60 | 201 | 1.0 | 6.0 | 0.00 | 0.00 | 0.00 | 35 | 1014.1 |
| 20260503211543 | 60 | 305 | 1.0 | 7.0 | 0.00 | 0.00 | 0.00 | 35 | 1014.3 |
| 20260503211332 | 60 | 248 | 1.0 | 6.0 | 0.00 | 0.00 | 0.00 | 36 | 1014.0 |
| 20260503211029 | 60 | 0 | 1.0 | 11.0 | 0.00 | 0.00 | 0.00 | 34 | 1014.1 |
| 20260503210826 | 60 | 150 | 0.0 | 11.0 | 0.00 | 0.00 | 0.00 | 36 | 1014.0 |
| 20260503210531 | 60 | 246 | 0.0 | 11.0 | 0.00 | 0.00 | 0.00 | 33 | 1014.2 |
| 20260503210323 | 60 | 305 | 1.0 | 11.0 | 0.00 | 0.00 | 0.00 | 36 | 1014.1 |
| 20260503210040 | 60 | 348 | 2.0 | 11.0 | 0.00 | 0.00 | 0.00 | 35 | 1014.4 |
| 20260503205816 | 60 | 17 | 1.0 | 11.0 | 0.00 | 0.00 | 0.00 | 37 | 1014.1 |
| 20260503205525 | 60 | 43 | 1.0 | 7.0 | 0.00 | 0.00 | 0.00 | 34 | 1014.3 |
| 20260503205333 | 60 | 87 | 1.0 | 4.0 | 0.00 | 0.00 | 0.00 | 36 | 1014.1 |
| 20260503205025 | 60 | 0 | 0.0 | 8.0 | 0.00 | 0.00 | 0.00 | 36 | 1014.3 |
| 20260503204847 | 60 | 196 | 0.0 | 8.0 | 0.00 | 0.00 | 0.00 | 39 | 1014.1 |
| 20260503204543 | 60 | 0 | 0.0 | 8.0 | 0.00 | 0.00 | 0.00 | 34 | 1014.4 |
| 20260503204319 | 60 | 140 | 2.0 | 8.0 | 0.00 | 0.00 | 0.00 | 36 | 1014.1 |
| 20260503204029 | 59 | 255 | 1.0 | 8.0 | 0.00 | 0.00 | 0.00 | 36 | 1014.4 |
| 20260503203818 | 60 | 21 | 1.0 | 7.0 | 0.00 | 0.00 | 0.00 | 35 | 1014.1 |
| 20260503203530 | 59 | 35 | 0.0 | 9.0 | 0.00 | 0.00 | 0.00 | 36 | 1014.3 |
| 20260503203331 | 60 | 306 | 1.0 | 8.0 | 0.00 | 0.00 | 0.00 | 36 | 1014.1 |
| 20260503203040 | 59 | 0 | 1.0 | 10.0 | 0.00 | 0.00 | 0.00 | 35 | 1014.5 |
| 20260503202845 | 60 | 229 | 2.0 | 9.0 | 0.00 | 0.00 | 0.00 | 36 | 1014.1 |
| 20260503202526 | 59 | 168 | 2.0 | 10.0 | 0.00 | 0.00 | 0.00 | 34 | 1014.5 |